Showing default

METEOR 2-7, 12456

Orbit data source: Space-Track

METEOR 2-7, 12456 is a Commonwealth of Independent States-origin payload satellite in LEO that was launched on Thu, 14 May 1981 UTC via a VOSTOK 8A92M launch vehicle from the Plesetsk Missile And Space Complex (PKMTR). Payload-class satellites include a variety of spacecraft equipped with specific instruments for various scientific and technological missions. These include communications satellites like Starlink; space stations such as the ISS; scientific satellites like the Hubble; Earth observation satellites from companies like Planet Labs, Umbra, and HawkEye 360; GPS; miniature CubeSats for education and research; and military/defense satellites.

Loading next visibility...
Identifier
12456, 1981-043A
Orbit
LEO
Country
Flag of CISCIS
Related business
Manufacturer
VNIIEM
Mission
Spacecraft
Bus & Motor
METEOR-2, Unknown motor
Mass
~1,500 kg wet, ~1,500 kg dry
Launch date (UTC)
1981-05-14 (45 years ago)
Launch vehicle
VOSTOK 8A92M
Launch site
Plesetsk Missile And Space Complex (PKMTR)
Object type
Payload
Rocket body
Debris
Shape & HBR
Unknown
Radar Cross Section
Large (>1 m²)

Expand to show TLE details & history
Last TLE update: 8 hours ago

TLE from 8 hours ago
0 METEOR 2-7
1 12456U 81043A   25340.96015202  .00000469  00000-0  25173-3 0  9993
2 12456  81.2650 286.0302 0046299 317.1587  42.5980 14.10999984291942
Epoch: 2025-12-06T23:02Z
TLE epoch observation values (Epoch: 2025-12-06T23:02:37.134Z)
Latitude
-0.00001°
Longitude
-135.60492°
Altitude
834.265 km
Speed
7.448 km/s
True Right ascension
19h 04m 07s
True Declination
0° 00' 00"
Sunlit
Object was in daylight at epoch
Visualization orbit readout
Latitude
Unknown
Longitude
Unknown
Altitude
Unknown
Speed
Unknown
Apparent Right ascension
Unknown
Apparent Declination
Unknown
Sunlit
N/A
Visualization observer readout
Local Sidereal Time
05:08:00
Azimuth
Unknown
Elevation
Unknown
Doppler factor
Unknown
Orbital elements
Apogee altitude
886.604 km
Perigee altitude
819.644 km
Semi-major axis
7,231.261 km
Eccentricity
0.00463
Inclination
81.265°
RAAN
286.0302°
Arg. of periapsis
317.1587°
True anomaly
42.95863°
Mean anomaly
42.598°
Eccentric anomaly
42.77816°
Mean motion
3.52957 °/min
Orbital period
102 mins
BSTAR
0.00025173
Loading maneuver chart data...
Computing Atmospheric mass density...
Loading historical data...
Loading historical data...
Loading historical data...
Loading historical data...
Loading historical data...
Loading historical data...
Loading historical data...

Documentation

Showing up to 5 results
|